Regional Weather Roundup
Issued by NWS

Home | Current Version | Previous Version | Graphics & Text | Print | Product List | Glossary On
Versions: 1 2 3 4 5 6 7 8 9 10 11 12 13 14 15 16 17 18 19 20 21 22 23 24 25 26 27 28 29 30 31 32 33 34 35 36 37 38 39 40 41 42 43 44 45 46 47 48 49 50
000
ASUS43 KLMK 170810
RWRKY
KENTUCKY REGIONAL WEATHER ROUNDUP
NATIONAL WEATHER SERVICE LOUISVILLE KY
400 AM EDT THU APR 17 2014

NOTE "FAIR" INDICATES FEW OR NO CLOUDS BELOW 12,000 FEET
WITH NO SIGNIFICANT WEATHER AND/OR OBSTRUCTIONS TO VISIBILITY.

KYZ001>023-026-027-061>063-070>075-170900-
WESTERN AND SOUTH CENTRAL KENTUCKY

CITY           SKY/WX    TMP DP  RH WIND       PRES   REMARKS
PADUCAH        CLEAR     46  30  53 CALM      30.19R
HENDERSON      CLEAR     43  28  56 S3        30.21R
OWENSBORO      CLEAR     43  29  58 CALM      30.22R
HOPKINSVILLE   CLEAR     46  32  57 SE7       30.22R
BOWLING GREEN  MOCLDY    45  31  58 S5        30.25R
GLASGOW        PTCLDY    48  31  52 S6        30.26R
$$

KYZ024-025-028>034-038-045-046-053-170900-
NORTH CENTRAL KENTUCKY

CITY           SKY/WX    TMP DP  RH WIND       PRES   REMARKS
LOUISVILLE/SDF CLOUDY    43  27  53 SE7       30.24S
LOUISVILLE/LOU PTCLDY    46  24  42 CALM      30.25R
FORT KNOX      PTCLDY    40  28  62 E5        30.23R
$$

KYZ035>037-039>044-047>052-055>060-089>105-170900-
NORTHEAST KENTUCKY

CITY           SKY/WX    TMP DP  RH WIND       PRES   REMARKS
LEXINGTON      PTCLDY    43  23  45 SE7       30.26S
COVINGTON      MOCLDY    39  24  55 SE7       30.26R WCI  34
FRANKFORT      CLEAR     37  27  67 CALM      30.25R
$$

KYZ054-064>069-076>088-106>120-170900-
SOUTHEAST KENTUCKY

CITY           SKY/WX    TMP DP  RH WIND       PRES   REMARKS
JACKSON        CLEAR     44  20  38 SE5       30.30R
LONDON         CLEAR     37  28  70 CALM      30.31R
SOMERSET       PTCLDY    41  28  60 SE3       30.31S
MIDDLESBORO    CLEAR     33  31  90 CALM      30.35R
MONTICELLO     SUNNY     41  30  65 SE7       30.31R
$$




USA.gov is the U.S. government's official web portal to all federal, state and local government web resources and services.